TimeEDT,TemperatureF,Dew PointF,Humidity,Sea Level PressureIn,VisibilityMPH,Wind Direction,Wind SpeedMPH,Gust SpeedMPH,PrecipitationIn,Events,Conditions,WindDirDegrees,DateUTC
12:51 AM,51.1,48.9,92,29.70,8.0,SW,4.6,-,N/A,,Clear,220,2013-05-16 04:51:00
1:51 AM,50.0,48.9,96,29.71,7.0,Calm,Calm,-,N/A,,Clear,0,2013-05-16 05:51:00
2:51 AM,48.0,46.9,96,29.70,7.0,South,4.6,-,N/A,,Clear,170,2013-05-16 06:51:00
3:51 AM,48.9,46.9,93,29.70,6.0,South,3.5,-,N/A,,Partly Cloudy,190,2013-05-16 07:51:00
4:51 AM,48.0,46.0,93,29.69,6.0,Calm,Calm,-,N/A,,Scattered Clouds,0,2013-05-16 08:51:00
5:15 AM,46.4,46.4,100,29.69,4.0,Calm,Calm,-,N/A,,Scattered Clouds,0,2013-05-16 09:15:00
5:26 AM,46.4,46.4,100,29.69,4.0,Calm,Calm,-,N/A,,Scattered Clouds,0,2013-05-16 09:26:00
5:51 AM,46.0,45.0,96,29.70,6.0,Calm,Calm,-,N/A,,Scattered Clouds,0,2013-05-16 09:51:00
6:51 AM,50.0,48.9,96,29.71,9.0,Calm,Calm,-,N/A,,Scattered Clouds,0,2013-05-16 10:51:00
7:51 AM,57.0,51.1,81,29.72,10.0,South,3.5,-,N/A,,Scattered Clouds,170,2013-05-16 11:51:00
8:51 AM,69.1,43.0,39,29.75,10.0,West,9.2,-,N/A,,Scattered Clouds,260,2013-05-16 12:51:00
9:51 AM,72.0,36.0,27,29.75,10.0,West,13.8,-,N/A,,Scattered Clouds,270,2013-05-16 13:51:00
10:51 AM,75.9,33.1,21,29.75,10.0,WNW,11.5,24.2,N/A,,Partly Cloudy,290,2013-05-16 14:51:00
11:51 AM,78.1,32.0,19,29.73,10.0,WNW,13.8,25.3,N/A,,Partly Cloudy,300,2013-05-16 15:51:00
12:51 PM,80.1,35.1,20,29.71,10.0,NW,12.7,21.9,N/A,,Scattered Clouds,310,2013-05-16 16:51:00
1:51 PM,80.1,35.1,20,29.70,10.0,West,13.8,23.0,N/A,,Scattered Clouds,270,2013-05-16 17:51:00
2:51 PM,82.0,35.1,18,29.68,10.0,West,15.0,27.6,N/A,,Scattered Clouds,280,2013-05-16 18:51:00
3:51 PM,82.9,35.1,18,29.67,10.0,West,15.0,25.3,N/A,,Scattered Clouds,260,2013-05-16 19:51:00
4:51 PM,81.0,32.0,17,29.67,10.0,WNW,19.6,-,N/A,,Scattered Clouds,290,2013-05-16 20:51:00
5:51 PM,82.0,32.0,16,29.67,10.0,WNW,17.3,24.2,N/A,,Scattered Clouds,290,2013-05-16 21:51:00
6:51 PM,80.1,32.0,17,29.68,10.0,WNW,11.5,20.7,N/A,,Scattered Clouds,290,2013-05-16 22:51:00
7:51 PM,75.9,34.0,22,29.70,10.0,West,8.1,-,N/A,,Scattered Clouds,280,2013-05-16 23:51:00
8:51 PM,73.0,34.0,24,29.73,10.0,NNW,6.9,-,N/A,,Scattered Clouds,340,2013-05-17 00:51:00
9:51 PM,70.0,37.0,30,29.78,10.0,NW,11.5,-,N/A,,Clear,320,2013-05-17 01:51:00
10:51 PM,68.0,36.0,31,29.79,10.0,NW,11.5,-,N/A,,Clear,320,2013-05-17 02:51:00
11:51 PM,66.9,33.1,28,29.81,10.0,NW,16.1,21.9,N/A,,Clear,320,2013-05-17 03:51:00